Flag for Spain Weather past 2 weeks in Linares, Spain

Now
91 °F

Sunny.


Feels Like: 88 °F
Forecast: 65 / 99 °F
Wind: 3 mph from North

Location: Granada / Aeropuerto

Current Time: Aug 1, 2015 at 4:02:53 PM

Latest Report: Aug 1, 2015 at 3:30 PM


Visibility: 10 mi

Pressure: 29.89 "Hg

Humidity: 20%

Dew point: 45 °F

Location of LinaresLocation

Historic Weather in Linares — Graph

°F

Linares temperature yesterday

Maximum temperature yesterday: 95 °F (at 5:00 PM)
Minimum temperature yesterday: 64 °F (at 7:00 AM)
Average temperature yesterday: 83 °F

Past Weeks' High & Low Weather Summary

 TemperatureHumidityPressure
High108 °F (Jul 28, 5:00 PM)83% (Aug 1, 7:30 AM)30.12 "Hg (Aug 1, 7:30 AM)
Low61 °F (Aug 1, 7:30 AM)8% (Jul 20, 3:00 PM)29.77 "Hg (Jul 31, 7:00 PM)
Average87 °F29%29.99 "Hg
* Reported Jul 17 3:00 PM — Aug 1 3:00 PM, Linares, Weather by CustomWeather, © 2015

Note: Actual official high and low records may vary slightly from our data, if they occured in-between our weather recording intervals... More about our weather records

Advertising

Linares weather history for previous 24 hours

 ConditionsComfort  
Time TempWeatherWind HumidityBarometerVisibility
3:00 PM
Sat, Aug 1
91 °FPassing clouds.6 mph20%29.92 "HgN/A
2:30 PM90 °FSunny.5 mph22%29.92 "Hg10 mi
2:00 PM88 °FSunny.2 mph24%29.95 "Hg10 mi
1:30 PM86 °FPassing clouds.3 mph27%29.95 "HgN/A
1:00 PM84 °FSunny.2 mph31%29.95 "Hg10 mi
12:30 PM82 °FSunny.2 mph40%29.95 "Hg10 mi
12:00 PM79 °FSunny.3 mph48%29.95 "Hg10 mi
11:30 AM79 °FSunny.2 mph48%29.95 "Hg10 mi
11:00 AM75 °FSunny.1 mph54%29.95 "Hg10 mi
10:30 AM75 °FSunny.1 mph54%29.95 "Hg10 mi
10:00 AM72 °FSunny.No wind61%29.98 "Hg10 mi
9:30 AM70 °FSunny.1 mph69%29.95 "Hg10 mi
9:00 AM68 °FSunny.No wind69%29.95 "Hg10 mi
8:30 AM64 °FSunny.No wind73%29.95 "Hg10 mi
8:00 AM63 °FClear.1 mph73%29.95 "Hg10 mi
7:30 AM61 °FClear.No wind83%29.95 "Hg10 mi
7:00 AM63 °FClear.1 mph77%29.92 "Hg10 mi
6:30 AM64 °FClear.1 mph73%29.92 "Hg10 mi
6:00 AM66 °FClear.3 mph68%29.92 "Hg10 mi
11:30 PM
Fri, Jul 31
77 °FPassing clouds.3 mph47%29.89 "HgN/A
11:00 PM79 °FClear.7 mph45%29.89 "Hg10 mi
10:30 PM79 °FPassing clouds.9 mph45%29.86 "HgN/A
10:00 PM81 °FPassing clouds.13 mph42%29.86 "HgN/A
9:30 PM82 °FPassing clouds.14 mph42%29.83 "HgN/A
9:00 PM84 °FPassing clouds.15 mph40%29.83 "HgN/A
8:30 PM88 °FPassing clouds.13 mph35%29.80 "HgN/A
8:00 PM90 °FPassing clouds.14 mph31%29.80 "HgN/A
7:30 PM91 °FPassing clouds.8 mph30%29.77 "HgN/A
7:00 PM93 °FPassing clouds.9 mph24%29.77 "HgN/A
6:30 PM93 °FPassing clouds.9 mph21%29.80 "HgN/A
6:00 PM93 °FPassing clouds.12 mph11%29.80 "HgN/A
5:30 PM93 °FPassing clouds.12 mph11%29.80 "HgN/A
5:00 PM95 °FPassing clouds.12 mph16%29.80 "HgN/A
4:30 PM93 °FPassing clouds.13 mph10%29.83 "HgN/A
4:00 PM93 °FPassing clouds.13 mph12%29.83 "HgN/A
Weather by CustomWeather, © 2015

See weather overviewHow to use our weather pages